Location: Unspecified
(0.0000°N, 0.0000°E)
Time: 02:30:22
(UTC+00:00)

Explorer 7 - All Passes

Search period start: 07 July 2015 00:00
Search period end: 17 July 2015 00:00
Orbit: 488 x 693 km, 50.3° (Epoch: 06 July)

Date Brightness Start Highest point End Pass type
(mag) Time Alt. Az. Time Alt. Az. Time Alt. Az.
07 Jul - 01:04:56 10° WSW 01:09:10 28° NW 01:13:22 10° N night (unlit)
07 Jul - 11:29:22 10° N 11:32:39 26° NE 11:35:56 10° ESE daylight
07 Jul - 13:11:15 10° W 13:13:15 13° SW 13:15:02 10° SSW daylight
07 Jul - 23:31:28 10° SSW 23:36:07 49° SE 23:40:55 10° NE night (unlit)
08 Jul - 01:14:20 10° W 01:16:58 14° NW 01:19:22 10° NNW night (unlit)
08 Jul - 11:36:28 10° NNW 11:40:21 69° NE 11:44:07 10° SE daylight
08 Jul - 23:38:57 10° SW 23:43:46 77° NW 23:48:43 10° NNE night (unlit)
09 Jul - 11:44:15 10° NW 11:48:00 44° SW 11:51:36 10° SSE daylight
09 Jul - 22:07:35 10° S 22:10:42 18° SE 22:14:06 10° E night (unlit)
09 Jul - 23:47:00 10° WSW 23:51:26 36° NW 23:55:57 10° NNE night (unlit)
10 Jul - 10:12:07 10° N 10:15:04 20° NE 10:18:02 10° E daylight
10 Jul - 11:52:51 10° W 11:55:40 18° SW 11:58:17 10° S daylight
10 Jul - 22:14:04 10° SSW 22:18:23 37° SE 22:22:56 10° ENE night (unlit)
10 Jul - 23:55:51 10° W 23:59:12 18° NW 00:02:24 10° N night (unlit)
11 Jul - 10:18:55 10° NNW 10:22:48 48° NE 10:26:30 10° SE daylight
11 Jul - 22:21:19 10° SSW 22:26:01 81° SE 22:30:56 10° NE night (unlit)
12 Jul - 10:26:26 10° NW 10:30:25 63° SW 10:34:13 10° SSE daylight
12 Jul - 20:50:50 10° SSE 20:52:56 13° SE 20:55:22 10° E night (unlit)
12 Jul - 22:29:07 10° SW 22:33:40 47° NW 22:38:22 10° NNE night (unlit)
13 Jul - 08:54:57 10° NNE 08:57:23 16° NE 08:59:56 10° E daylight
13 Jul - 10:34:40 10° WNW 10:38:02 25° SW 10:41:13 10° S daylight
13 Jul - 20:56:45 10° S 21:00:38 28° SE 21:04:46 10° ENE night (unlit)
13 Jul - 22:37:37 10° WSW 22:41:23 22° NW 22:45:07 10° N night (unlit)
14 Jul - 09:01:20 10° NNW 09:05:08 35° NE 09:08:46 10° ESE daylight
14 Jul - 10:44:29 10° WSW 10:45:43 11° SW 10:46:42 10° SW daylight
14 Jul - 21:03:44 10° SSW 21:08:15 60° SE 21:13:00 10° NE night (unlit)
14 Jul - 22:47:55 10° WNW 22:49:12 11° NW 22:50:09 10° NW night (unlit)
15 Jul - 09:08:37 10° NW 09:12:46 90° S 09:16:41 10° SE daylight
15 Jul - 21:11:19 10° SW 21:15:51 62° NW 21:20:37 10° NNE night (unlit)
16 Jul - 07:37:58 10° NNE 07:39:36 12° NE 07:41:26 10° ENE daylight
16 Jul - 09:16:32 10° WNW 09:20:20 35° SW 09:23:56 10° SSE daylight
16 Jul - 19:39:32 10° S 19:42:49 21° SE 19:46:23 10° ENE visible
16 Jul - 21:19:29 10° WSW 21:23:31 28° NW 21:27:37 10° N night (unlit)
